Morris, MN

3:56 AM CDT on September 22, 2017 (GMT -0500)
Morris Municipal

Weather History for KMOX - June, 2014

Change the Weather History Date:

Monday, June 16, 2014

  Actual Average Record
Temperature  
Mean Temperature 63 °F -  
Max Temperature 73 °F 73 °F 87 °F (2003)
Min Temperature 53 °F 53 °F 44 °F (1999)
Degree Days  
Heating Degree Days 2    
Growing Degree Days 13 (Base 50)    
Moisture  
Dew Point 57 °F    
Average Humidity 81    
Maximum Humidity 94    
Minimum Humidity 68    
Precipitation  
Precipitation 0.05 in - - ()
Sea Level Pressure  
Sea Level Pressure 29.75 in    
Wind  
Wind Speed 8 mph (SE)    
Max Wind Speed 37 mph    
Max Gust Speed 44 mph    
Visibility 10 miles    
Events Rain , Thunderstorm    
Averages and records for this station are not official NWS values.
T = Trace of Precipitation, MM = Missing Value Source: NWS Daily Summary

Daily Weather History Graph

Daily Weather History Graph

Search for Another Location

Airport or City:

Trip Planner

Search our weather history database for the weather conditions in past years. The results will help you decide how hot, cold, wet, or windy it might be!

Date:

Astronomy

Jun. 16, 2014 Rise Set
Actual Time 5:34 AM CDT 9:15 PM CDT
Civil Twilight 4:56 AM CDT 9:53 PM CDT
Nautical Twilight 4:05 AM CDT 10:44 PM CDT
Astronomical Twilight 2:56 AM CDT 11:53 PM CDT
Moon 11:54 PM CDT (6/16) 9:50 AM CDT (6/16)
Length of Visible Light 16h 56m
Length of Day
15h 40m
Waning Gibbous, 83% of the Moon is Illuminated
Jun 16
Waning Gibbous
Jun 19
Last Quarter
Jun 27
New
Jul 5
First Quarter
Jul 12
Full

Hourly Weather History & Observations

Time (CDT) Temp. Dew Point Humidity Pressure Visibility Wind Dir Wind Speed Gust Speed Precip Events Conditions
12:10 AM 62.6 °F 53.6 °F 72% 29.79 in 10.0 mi SW 10.4 mph - N/A   Clear
12:30 AM 62.6 °F 53.6 °F 72% 29.79 in 10.0 mi SW 9.2 mph - N/A   Clear
12:50 AM 60.8 °F 53.6 °F 77% 29.79 in 10.0 mi SW 11.5 mph - N/A   Clear
1:10 AM 60.8 °F 53.6 °F 77% 29.79 in 10.0 mi SW 10.4 mph - N/A   Clear
1:30 AM 60.8 °F 53.6 °F 77% 29.79 in 10.0 mi SSW 11.5 mph - N/A   Clear
1:50 AM 60.8 °F 53.6 °F 77% 29.79 in 10.0 mi SSW 10.4 mph - N/A   Clear
2:10 AM 60.8 °F 53.6 °F 77% 29.80 in 10.0 mi SSW 9.2 mph - N/A   Clear
2:30 AM 60.8 °F 53.6 °F 77% 29.81 in 10.0 mi SSW 10.4 mph - N/A   Clear
2:50 AM 59.0 °F 53.6 °F 82% 29.80 in 10.0 mi SSW 8.1 mph - N/A   Clear
3:10 AM 57.2 °F 53.6 °F 88% 29.80 in 10.0 mi SW 6.9 mph - N/A   Clear
3:30 AM 57.2 °F 51.8 °F 82% 29.80 in 10.0 mi SSW 5.8 mph 9.2 mph N/A   Clear
3:50 AM 55.4 °F 51.8 °F 88% 29.81 in 10.0 mi SSW 4.6 mph - N/A   Clear
4:10 AM 55.4 °F 51.8 °F 88% 29.80 in 10.0 mi Calm Calm - N/A   Clear
4:30 AM 55.4 °F 51.8 °F 88% 29.80 in 10.0 mi South 3.5 mph - N/A   Clear
4:50 AM 53.6 °F 51.8 °F 94% 29.81 in 10.0 mi South 5.8 mph - N/A   Clear
5:10 AM 55.4 °F 51.8 °F 88% 29.80 in 10.0 mi SSE 3.5 mph - N/A   Clear
5:30 AM 53.6 °F 51.8 °F 94% 29.81 in 10.0 mi SSE 9.2 mph - N/A   Clear
5:50 AM 55.4 °F 51.8 °F 88% 29.82 in 10.0 mi South 10.4 mph - N/A   Clear
6:10 AM 55.4 °F 53.6 °F 94% 29.82 in 10.0 mi SSE 5.8 mph - N/A   Clear
6:30 AM 57.2 °F 53.6 °F 88% 29.82 in 10.0 mi South 4.6 mph - N/A   Clear
6:50 AM 59.0 °F 53.6 °F 82% 29.83 in 10.0 mi South 4.6 mph - N/A   Clear
7:10 AM 60.8 °F 55.4 °F 82% 29.82 in 10.0 mi Calm Calm - N/A   Clear
7:30 AM 62.6 °F 55.4 °F 77% 29.82 in 10.0 mi SSE 5.8 mph - N/A   Clear
7:50 AM 62.6 °F 57.2 °F 82% 29.82 in 10.0 mi South 8.1 mph - N/A   Clear
8:10 AM 64.4 °F 57.2 °F 77% 29.82 in 10.0 mi South 9.2 mph - N/A   Clear
8:30 AM 66.2 °F 57.2 °F 73% 29.82 in 10.0 mi SSE 4.6 mph - N/A   Clear
8:50 AM 66.2 °F 57.2 °F 73% 29.81 in 10.0 mi SSE 3.5 mph - N/A   Clear
9:10 AM 69.8 °F 59.0 °F 68% 29.82 in 10.0 mi Calm Calm - N/A   Clear
9:30 AM 69.8 °F 59.0 °F 68% 29.82 in 10.0 mi SSE 4.6 mph - N/A   Clear
9:50 AM 69.8 °F 60.8 °F 73% 29.81 in 10.0 mi SE 4.6 mph - N/A   Clear
10:30 AM 71.6 °F 60.8 °F 69% 29.80 in 10.0 mi SE 9.2 mph - N/A   Clear
10:50 AM 71.6 °F 62.6 °F 73% 29.79 in 10.0 mi SE 9.2 mph - N/A   Clear
11:10 AM 73.4 °F 62.6 °F 69% 29.77 in 10.0 mi ESE 8.1 mph - N/A Thunderstorm Clear
11:27 AM 73.4 °F 62.6 °F 69% 29.78 in 10.0 mi SE 8.1 mph - N/A   Clear
11:50 AM 73.4 °F 62.6 °F 69% 29.80 in 10.0 mi South 9.2 mph - N/A   Clear
12:10 PM 71.6 °F 62.6 °F 73% 29.81 in 10.0 mi South 6.9 mph - N/A   Clear
12:30 PM 71.6 °F 62.6 °F 73% 29.80 in 10.0 mi SSE 9.2 mph - N/A   Clear
12:50 PM 69.8 °F 62.6 °F 78% 29.81 in 10.0 mi SE 3.5 mph - N/A Thunderstorm Unknown
1:10 PM 69.8 °F 62.6 °F 78% 29.83 in 10.0 mi Calm Calm - N/A   Light Drizzle
1:30 PM 68.0 °F 62.6 °F 83% 29.83 in 10.0 mi NE 4.6 mph 10.4 mph N/A Rain Light Rain
1:50 PM 68.0 °F 60.8 °F 78% 29.86 in 10.0 mi WNW 8.1 mph - N/A Rain , Thunderstorm Light Thunderstorms and Rain
2:10 PM 68.0 °F 62.6 °F 83% 29.90 in 10.0 mi SW 16.1 mph - N/A Rain Light Rain
2:30 PM 66.2 °F 60.8 °F 83% 29.88 in 10.0 mi South 5.8 mph - 0.03 in Rain , Thunderstorm Light Thunderstorms and Rain
2:50 PM 64.4 °F 59.0 °F 83% 29.66 in 7.0 mi East 36.8 mph 43.7 mph 0.05 in Rain Light Rain
3:30 PM 66.2 °F 57.2 °F 73% 29.67 in 10.0 mi ESE 24.2 mph 34.5 mph N/A   Clear
3:50 PM 66.2 °F 59.0 °F 78% 29.68 in 10.0 mi SE 20.7 mph 26.5 mph N/A   Clear
4:10 PM 66.2 °F 60.8 °F 83% 29.72 in 10.0 mi SSE 18.4 mph 28.8 mph N/A   Clear
4:30 PM 66.2 °F 59.0 °F 78% 29.69 in 10.0 mi ESE 15.0 mph 23.0 mph N/A   Clear
4:50 PM 64.4 °F 59.0 °F 83% 29.65 in 10.0 mi East 11.5 mph - N/A   Clear
5:10 PM 64.4 °F 57.2 °F 77% 29.66 in 10.0 mi East 11.5 mph - N/A   Clear
5:30 PM 64.4 °F 59.0 °F 83% 29.64 in 10.0 mi East 9.2 mph - N/A   Clear
5:50 PM 62.6 °F 57.2 °F 82% 29.63 in 10.0 mi East 9.2 mph - N/A   Clear
6:10 PM 62.6 °F 59.0 °F 88% 29.66 in 10.0 mi SE 4.6 mph - N/A   Clear
6:30 PM 62.6 °F 59.0 °F 88% 29.66 in 10.0 mi East 4.6 mph - N/A   Clear
6:50 PM 62.6 °F 59.0 °F 88% 29.65 in 10.0 mi ENE 5.8 mph - N/A   Clear
7:10 PM 62.6 °F 59.0 °F 88% 29.65 in 10.0 mi ENE 8.1 mph - N/A   Clear
7:30 PM 64.4 °F 59.0 °F 83% 29.66 in 10.0 mi ENE 6.9 mph - N/A   Clear
7:50 PM 64.4 °F 59.0 °F 83% 29.66 in 10.0 mi East 5.8 mph - N/A   Clear
8:10 PM 64.4 °F 59.0 °F 83% 29.65 in 10.0 mi East 6.9 mph - N/A   Clear
8:30 PM 64.4 °F 59.0 °F 83% 29.65 in 10.0 mi East 8.1 mph - N/A   Clear
8:50 PM 64.4 °F 57.2 °F 77% 29.64 in 10.0 mi East 8.1 mph - N/A   Clear
9:10 PM 62.6 °F 59.0 °F 88% 29.64 in 10.0 mi East 5.8 mph - N/A   Clear
9:30 PM 62.6 °F 59.0 °F 88% 29.65 in 10.0 mi ENE 8.1 mph - N/A   Clear
9:50 PM 62.6 °F 57.2 °F 82% 29.65 in 10.0 mi NE 6.9 mph - N/A   Clear
10:10 PM 60.8 °F 59.0 °F 94% 29.67 in 10.0 mi NE 8.1 mph - N/A   Clear
10:30 PM 62.6 °F 59.0 °F 88% 29.67 in 10.0 mi NE 8.1 mph - N/A   Clear
10:50 PM 62.6 °F 59.0 °F 88% 29.68 in 10.0 mi ENE 9.2 mph - N/A   Clear
11:10 PM 62.6 °F 57.2 °F 82% 29.70 in 10.0 mi ENE 6.9 mph - N/A   Clear
11:30 PM 64.4 °F 57.2 °F 77% 29.70 in 10.0 mi East 9.2 mph - N/A   Clear
11:50 PM 64.4 °F 57.2 °F 77% 29.69 in 10.0 mi ENE 10.4 mph - N/A   Clear